When you browse on this site, cookies collect data to enhance your experience and personalize the content and advertising you see.
Visit our Privacy Policy to learn more. By continuing to use the site, you agree to this use of cookies and data.
  • In Spain
  • List of Countries
  • For 7 days
  • Water Temperature
  • Satellite Maps
  • Weather Map
  • Weather Widgets
  • user-avatar
    Login

    Hourly Weather Ben-Gurion

    Today, 19 April, Friday

    Time Temperature Precipitation Wind Pressure Humidity
    00:00 +15°C° 0 mm 2 mps 758 mmHg 72%
    01:00 +14°C° 0 mm 3 mps 757 mmHg 70%
    02:00 +14°C° 0 mm 3 mps 757 mmHg 69%
    03:00 +14°C° 0 mm 3 mps 757 mmHg 71%
    04:00 +13°C° 0 mm 3 mps 757 mmHg 73%
    05:00 +13°C° 0 mm 3 mps 757 mmHg 75%
    06:00 +14°C° 0 mm 4 mps 757 mmHg 71%
    07:00 +15°C° 0 mm 5 mps 757 mmHg 66%
    08:00 +16°C° 0 mm 6 mps 757 mmHg 61%
    09:00 +17°C° 0 mm 6 mps 757 mmHg 58%
    10:00 +18°C° 0 mm 7 mps 757 mmHg 55%
    11:00 +20°C° 0 mm 8 mps 757 mmHg 52%
    12:00 +20°C° 0 mm 8 mps 757 mmHg 52%
    13:00 +20°C° 0 mm 8 mps 757 mmHg 52%
    14:00 +20°C° 0 mm 8 mps 757 mmHg 52%
    15:00 +18°C° 0.1 mm 8 mps 757 mmHg 55%
    16:00 +18°C° 0.1 mm 7 mps 757 mmHg 58%
    17:00 +17°C° 0.1 mm 7 mps 757 mmHg 61%
    18:00 +16°C° 0.1 mm 6 mps 757 mmHg 65%
    19:00 +16°C° 0.1 mm 5 mps 757 mmHg 68%
    20:00 +15°C° 0.1 mm 4 mps 757 mmHg 72%
    21:00 +15°C° 0.1 mm 4 mps 757 mmHg 73%
    22:00 +15°C° 0.1 mm 4 mps 758 mmHg 73%
    23:00 +14°C° 0.1 mm 3 mps 758 mmHg 74%

    Tomorrow, 20 April, Saturday

    Time Temperature Precipitation Wind Pressure Humidity
    00:00 +14°C° 0.1 mm 3 mps 757 mmHg 75%
    01:00 +14°C° 0.1 mm 3 mps 757 mmHg 76%
    02:00 +14°C° 0.1 mm 3 mps 757 mmHg 77%
    03:00 +14°C° 0 mm 3 mps 757 mmHg 77%
    04:00 +13°C° 0 mm 3 mps 757 mmHg 77%
    05:00 +13°C° 0 mm 3 mps 757 mmHg 76%
    06:00 +14°C° 0 mm 4 mps 757 mmHg 71%
    07:00 +15°C° 0 mm 4 mps 757 mmHg 67%
    08:00 +16°C° 0 mm 5 mps 757 mmHg 62%
    09:00 +17°C° 0.1 mm 5 mps 757 mmHg 59%
    10:00 +17°C° 0.1 mm 6 mps 757 mmHg 57%
    11:00 +18°C° 0.1 mm 7 mps 757 mmHg 55%
    12:00 +18°C° 0.1 mm 7 mps 757 mmHg 55%
    13:00 +18°C° 0.1 mm 7 mps 757 mmHg 56%
    14:00 +18°C° 0.1 mm 8 mps 756 mmHg 56%
    15:00 +18°C° 0.1 mm 7 mps 756 mmHg 59%
    16:00 +17°C° 0.1 mm 7 mps 756 mmHg 61%
    17:00 +17°C° 0.1 mm 7 mps 756 mmHg 64%
    18:00 +16°C° 0 mm 6 mps 756 mmHg 67%
    19:00 +15°C° 0 mm 5 mps 756 mmHg 71%
    20:00 +15°C° 0 mm 5 mps 757 mmHg 74%
    21:00 +15°C° 0 mm 5 mps 757 mmHg 74%
    22:00 +14°C° 0 mm 4 mps 757 mmHg 75%
    23:00 +14°C° 0 mm 4 mps 757 mmHg 76%

    Day after tomorrow, 21 April, Sunday

    Time Temperature Precipitation Wind Pressure Humidity
    00:00 +14°C° 0.1 mm 5 mps 756 mmHg 76%
    01:00 +14°C° 0.1 mm 5 mps 756 mmHg 76%
    02:00 +14°C° 0.1 mm 5 mps 756 mmHg 77%
    03:00 +14°C° 0.1 mm 6 mps 755 mmHg 76%
    04:00 +14°C° 0.1 mm 6 mps 755 mmHg 75%
    05:00 +14°C° 0.1 mm 7 mps 755 mmHg 74%
    06:00 +15°C° 0.3 mm 8 mps 755 mmHg 69%
    07:00 +14°C° 0.3 mm 10 mps 755 mmHg 65%
    08:00 +16°C° 0.3 mm 11 mps 755 mmHg 60%
    09:00 +16°C° 0.5 mm 11 mps 755 mmHg 57%
    10:00 +16°C° 0.5 mm 11 mps 755 mmHg 55%
    11:00 +17°C° 0.5 mm 11 mps 756 mmHg 52%
    12:00 +17°C° 0.3 mm 11 mps 756 mmHg 52%
    13:00 +17°C° 0.3 mm 11 mps 755 mmHg 51%
    14:00 +17°C° 0.3 mm 11 mps 755 mmHg 50%
    15:00 +17°C° 0.1 mm 9 mps 756 mmHg 51%
    16:00 +16°C° 0.1 mm 8 mps 756 mmHg 51%
    17:00 +16°C° 0.1 mm 7 mps 757 mmHg 52%
    18:00 +15°C° 0 mm 6 mps 757 mmHg 56%
    19:00 +15°C° 0 mm 5 mps 757 mmHg 60%
    20:00 +14°C° 0 mm 5 mps 758 mmHg 64%
    21:00 +14°C° 0 mm 5 mps 758 mmHg 65%
    22:00 +14°C° 0 mm 4 mps 758 mmHg 66%
    23:00 +14°C° 0 mm 4 mps 758 mmHg 67%

    22 April, Monday

    Time Temperature Precipitation Wind Pressure Humidity
    00:00 +13°C° 0 mm 4 mps 758 mmHg 67%
    01:00 +13°C° 0 mm 3 mps 758 mmHg 66%
    02:00 +14°C° 0 mm 2 mps 757 mmHg 66%
    03:00 +14°C° 0 mm 2 mps 757 mmHg 65%
    04:00 +14°C° 0 mm 2 mps 758 mmHg 65%
    05:00 +14°C° 0 mm 2 mps 758 mmHg 64%
    06:00 +14°C° 0 mm 3 mps 758 mmHg 64%
    07:00 +15°C° 0 mm 4 mps 758 mmHg 63%
    08:00 +16°C° 0 mm 5 mps 759 mmHg 63%
    09:00 +17°C° 0 mm 5 mps 759 mmHg 59%
    10:00 +17°C° 0 mm 6 mps 759 mmHg 56%
    11:00 +19°C° 0 mm 6 mps 759 mmHg 52%
    12:00 +19°C° 0 mm 6 mps 759 mmHg 51%
    13:00 +19°C° 0 mm 6 mps 759 mmHg 49%
    14:00 +19°C° 0 mm 6 mps 758 mmHg 48%
    15:00 +19°C° 0 mm 6 mps 758 mmHg 49%
    16:00 +17°C° 0 mm 5 mps 759 mmHg 50%
    17:00 +18°C° 0 mm 4 mps 759 mmHg 51%
    18:00 +17°C° 0 mm 3 mps 759 mmHg 55%
    19:00 +16°C° 0 mm 2 mps 759 mmHg 59%
    20:00 +15°C° 0 mm 1 mps 760 mmHg 62%
    21:00 +15°C° 0 mm 1 mps 760 mmHg 63%
    22:00 +15°C° 0 mm 1 mps 760 mmHg 63%
    23:00 +15°C° 0 mm 1 mps 760 mmHg 64%

    23 April, Tuesday

    Time Temperature Precipitation Wind Pressure Humidity
    00:00 +14°C° 0 mm 1 mps 760 mmHg 64%
    01:00 +14°C° 0 mm 1 mps 760 mmHg 64%
    02:00 +14°C° 0 mm 1 mps 760 mmHg 65%
    03:00 +13°C° 0 mm 1 mps 760 mmHg 65%
    04:00 +13°C° 0 mm 1 mps 760 mmHg 65%
    05:00 +13°C° 0 mm 1 mps 761 mmHg 66%
    06:00 +15°C° 0 mm 1 mps 761 mmHg 62%
    07:00 +16°C° 0 mm 1 mps 761 mmHg 58%
    08:00 +18°C° 0 mm 1 mps 762 mmHg 54%
    09:00 +19°C° 0 mm 2 mps 762 mmHg 51%
    10:00 +20°C° 0 mm 2 mps 762 mmHg 48%
    11:00 +21°C° 0 mm 3 mps 762 mmHg 45%
    12:00 +21°C° 0 mm 4 mps 762 mmHg 45%
    13:00 +22°C° 0 mm 4 mps 761 mmHg 45%
    14:00 +22°C° 0 mm 5 mps 761 mmHg 45%
    15:00 +21°C° 0 mm 5 mps 761 mmHg 47%
    16:00 +21°C° 0 mm 5 mps 761 mmHg 48%
    17:00 +20°C° 0 mm 5 mps 761 mmHg 49%
    18:00 +19°C° 0 mm 4 mps 761 mmHg 52%
    19:00 +18°C° 0 mm 3 mps 762 mmHg 55%
    20:00 +17°C° 0 mm 3 mps 762 mmHg 58%
    21:00 +17°C° 0 mm 3 mps 762 mmHg 59%
    22:00 +17°C° 0 mm 3 mps 762 mmHg 59%
    23:00 +17°C° 0 mm 2 mps 762 mmHg 60%

    24 April, Wednesday

    Time Temperature Precipitation Wind Pressure Humidity
    00:00 +16°C° 0 mm 2 mps 762 mmHg 62%
    01:00 +16°C° 0 mm 3 mps 762 mmHg 63%
    02:00 +16°C° 0 mm 3 mps 761 mmHg 65%
    03:00 +16°C° 0 mm 2 mps 761 mmHg 65%
    04:00 +15°C° 0 mm 2 mps 761 mmHg 66%
    05:00 +15°C° 0 mm 2 mps 761 mmHg 66%
    06:00 +17°C° 0 mm 2 mps 761 mmHg 59%
    07:00 +19°C° 0 mm 2 mps 762 mmHg 52%
    08:00 +22°C° 0 mm 1 mps 762 mmHg 44%
    09:00 +23°C° 0 mm 2 mps 762 mmHg 41%
    10:00 +24°C° 0 mm 2 mps 761 mmHg 37%
    11:00 +26°C° 0 mm 2 mps 761 mmHg 34%
    12:00 +26°C° 0 mm 4 mps 761 mmHg 35%
    13:00 +26°C° 0 mm 5 mps 760 mmHg 37%
    14:00 +26°C° 0 mm 6 mps 760 mmHg 38%
    15:00 +26°C° 0 mm 6 mps 760 mmHg 38%
    16:00 +25°C° 0 mm 5 mps 760 mmHg 38%
    17:00 +23°C° 0 mm 4 mps 760 mmHg 38%
    18:00 +22°C° 0 mm 4 mps 760 mmHg 42%
    19:00 +21°C° 0 mm 3 mps 760 mmHg 46%
    20:00 +20°C° 0 mm 3 mps 760 mmHg 50%
    21:00 +19°C° 0 mm 2 mps 760 mmHg 50%
    22:00 +19°C° 0 mm 2 mps 760 mmHg 50%
    23:00 +19°C° 0 mm 2 mps 760 mmHg 50%
    Show more